[[{"header":{"parameterUnit":"m.s-1","parameterCategory":2,"la1":30.2991,"la2":30.254,"lo1":-89.0895,"lo2":-89.0444,"dy":0.0017,"dx":0.0017,"nx":28,"ny":28,"refTime":"2023-04-26T15:00:00:Z","depth":"0","parameterNumber":2,"parameterNumberName":"U-component_of_CURRENTS"},"data":[0,0,0,0,0,0,0,0,0,0,0,0,0,0,0,0,0,0,0,0,0,0,0,0,0,0,0,0,0,0,0,0,0,0,0,0,0,0,0,0,0,0,0,0,0,0,0,0,0,0,0,0,0,0,0,0,0,0,-0.26,-0.26,0,-0.2607,-0.2606,-0.2606,-0.2566,-0.2565,-0.2565,-0.2564,-0.2434,-0.2431,-0.2428,0,0,0,0,0,0,0,0,0,0,0,0,0,-0.2523,-0.2524,-0.2599,-0.26,-0.2601,-0.2607,-0.2606,-0.2606,-0.2566,-0.2565,-0.2564,-0.2564,-0.2435,-0.2431,-0.2428,0,0,0,0,0,0,0,0,0,0,0,0,0,-0.2541,-0.2524,-0.2599,-0.2585,-0.2584,-0.2607,-0.2606,-0.2606,-0.2566,-0.2565,-0.2564,-0.2563,-0.2436,-0.2432,-0.2428,-0.2422,0,0,-0.2415,-0.2413,0,0,0,0,0,0,0,0,-0.254,-0.2543,-0.2587,-0.2586,-0.2585,-0.2589,-0.2532,-0.2539,-0.2567,-0.2568,-0.2564,-0.2563,-0.2477,-0.2469,-0.2468,-0.2416,-0.241,-0.2414,-0.2412,-0.241,-0.2409,0,0,0,0,0,0,0,-0.2539,-0.2542,-0.2597,-0.2588,-0.2587,-0.2569,-0.257,-0.2533,-0.2522,-0.2568,-0.2566,-0.2575,-0.2475,-0.2472,-0.2464,-0.2408,-0.2414,-0.2411,-0.2408,-0.2406,-0.2394,-0.2396,0,0,0,0,0,0,-0.2551,-0.2542,-0.2597,-0.2598,-0.2565,-0.2572,-0.2573,-0.2585,-0.2525,-0.2518,-0.2576,-0.2573,-0.248,-0.2469,-0.2459,-0.2533,-0.241,-0.2406,-0.2403,-0.2392,-0.2394,-0.2397,0,0,0,0,0,0,-0.2549,-0.2556,-0.2597,-0.2573,-0.2578,-0.2575,-0.2588,-0.2585,-0.259,-0.2534,-0.2522,-0.2585,-0.2479,-0.2465,-0.2454,-0.2524,-0.2404,-0.24,-0.2389,-0.2392,-0.2395,-0.2627,0,0,0,0,0,0,-0.2547,-0.2555,-0.2564,-0.2575,-0.258,-0.2644,-0.259,-0.2586,-0.2599,-0.2596,-0.2537,-0.2524,-0.2477,-0.2461,-0.245,-0.2516,-0.2397,-0.2386,-0.2391,-0.2394,-0.2616,-0.2637,-0.2656,0,0,0,0,0,-0.2544,-0.257,-0.2564,-0.2571,-0.2593,-0.2647,-0.2649,-0.2638,-0.2601,-0.2631,-0.2584,-0.2526,-0.2479,-0.2459,-0.2445,-0.2513,-0.2384,-0.2389,-0.2394,-0.2607,-0.2633,-0.2655,0,0,0,0,0,0,-0.254,-0.2569,-0.2562,-0.2594,-0.2633,-0.2643,-0.2662,-0.265,-0.2637,-0.2617,-0.255,-0.2537,-0.2546,-0.2493,-0.2473,-0.2518,-0.2423,-0.2426,-0.259,-0.2613,-0.2633,-0.2656,-0.2393,0,0,0,0,0,-0.2545,-0.257,-0.2604,-0.2631,-0.2653,-0.2656,-0.267,-0.2669,-0.2663,-0.2656,-0.2624,-0.258,-0.2557,-0.2556,-0.2515,-0.2546,-0.2477,-0.2578,-0.2598,-0.2615,-0.2624,-0.2602,-0.2621,-0.2413,-0.2413,-0.2413,0,0,-0.2549,-0.2569,-0.2582,-0.2632,-0.2649,-0.2725,-0.2661,-0.27,-0.2763,-0.2641,-0.2697,-0.2634,-0.2572,-0.2609,-0.2611,-0.2578,-0.2636,-0.2622,-0.2638,-0.2636,-0.2609,-0.263,-0.2648,-0.2416,-0.2416,-0.2415,0,0,-0.2599,-0.2595,-0.2647,-0.2698,-0.2747,-0.2763,-0.2783,-0.2812,-0.2823,-0.2863,-0.2793,-0.2785,-0.2752,-0.2749,-0.2733,-0.2835,-0.2724,-0.2813,-0.2958,-0.2939,-0.2956,-0.297,-0.2905,-0.2911,-0.2846,-0.2846,-0.2847,0,-0.2603,-0.2678,-0.2673,-0.276,-0.2812,-0.2794,-0.2886,-0.2914,-0.2938,-0.2946,-0.2907,-0.2874,-0.283,-0.2881,-0.2927,-0.2886,-0.2826,-0.2882,-0.2968,-0.298,-0.2991,-0.292,-0.2924,-0.2858,-0.2857,-0.2855,-0.2854,0,-0.2706,-0.2782,-0.2823,-0.2927,-0.2983,-0.3054,-0.3106,-0.3143,-0.3133,-0.3143,-0.3166,-0.3116,-0.3087,-0.3098,-0.3048,-0.3117,-0.3031,-0.2981,-0.2916,-0.3027,-0.2943,-0.2944,-0.2875,-0.2871,-0.2867,-0.2864,0,0,-0.2675,-0.286,-0.2874,-0.2958,-0.3075,-0.3125,-0.3237,-0.3315,-0.3348,-0.3374,-0.341,-0.3424,-0.3353,-0.333,-0.3274,-0.3294,-0.3329,-0.319,-0.3184,-0.314,-0.3247,-0.3086,-0.3069,-0.3293,-0.3295,-0.3296,-0.3157,0,-0.2759,-0.2946,-0.3014,-0.319,-0.3295,-0.3335,-0.3431,-0.349,-0.3503,-0.3529,-0.3504,-0.3492,-0.3458,-0.342,-0.345,-0.3309,-0.3341,-0.3368,-0.3132,-0.3124,-0.2982,-0.3069,-0.2974,-0.2834,-0.3157,-0.3157,-0.3157,0,-0.2835,-0.2956,-0.3144,-0.3321,-0.3361,-0.345,-0.3548,-0.3628,-0.3669,-0.3665,-0.3675,-0.361,-0.3615,-0.3563,-0.3475,-0.3482,-0.3404,-0.3332,-0.3323,-0.3091,-0.2965,-0.2773,-0.2821,-0.2814,-0.3156,-0.3156,-0.3156,0,-0.2809,-0.3037,-0.3179,-0.3251,-0.3447,-0.3505,-0.3574,-0.3649,-0.3677,-0.3718,-0.3687,-0.3703,-0.3617,-0.3582,-0.3399,-0.344,-0.3257,-0.3283,-0.3089,-0.3073,-0.2903,-0.2869,-0.2926,-0.3281,-0.3281,-0.3281,-0.3282,0,-0.2873,-0.2986,-0.3171,-0.3256,-0.3375,-0.3498,-0.3578,-0.3645,-0.3689,-0.3665,-0.3718,-0.364,-0.3613,-0.3481,-0.3405,-0.3185,-0.3248,-0.3118,-0.3041,-0.2976,-0.2953,-0.2859,-0.2882,-0.3276,-0.3277,-0.3278,-0.3279,0,-0.2846,-0.2976,-0.314,-0.3333,-0.3376,-0.3445,-0.3552,-0.358,-0.3637,-0.3595,-0.3587,-0.355,-0.337,-0.3305,-0.3162,-0.3111,-0.291,-0.2893,-0.2785,-0.2701,-0.2572,-0.2609,-0.2515,-0.245,-0.2717,-0.2712,-0.2708,0,-0.2866,-0.2952,-0.3145,-0.3184,-0.3269,-0.3371,-0.3409,-0.3527,-0.3527,-0.3477,-0.3414,-0.3278,-0.311,-0.2855,-0.2757,-0.2616,-0.2663,-0.2475,-0.2586,-0.2558,-0.2545,-0.2584,-0.2542,-0.2448,-0.2442,-0.2437,-0.2434,0,-0.2859,-0.2907,-0.3,-0.3088,-0.3144,-0.3208,-0.3261,-0.325,-0.3303,-0.3258,-0.3072,-0.2938,-0.2734,-0.2525,-0.2379,-0.2297,-0.2434,-0.2375,-0.2397,-0.2387,-0.2383,-0.2281,-0.252,-0.2392,-0.2396,-0.2399,-0.2402,-0.2403,-0.2771,-0.2805,-0.2863,-0.2929,-0.2973,-0.2931,-0.2864,-0.2904,-0.2823,-0.2652,-0.269,-0.2438,-0.2389,-0.2167,-0.209,-0.1996,-0.209,-0.2013,-0.2069,-0.2117,-0.2048,-0.2166,-0.192,-0.1921,-0.1923,-0.1924,-0.1925,0,-0.2613,-0.263,-0.2685,-0.269,-0.262,-0.2714,-0.2654,-0.2513,-0.2307,-0.2271,-0.2114,-0.1968,-0.1854,-0.185,-0.1817,-0.1754,-0.1775,-0.172,-0.182,-0.18,-0.1936,-0.192,-0.1599,-0.1599,-0.1599,-0.1599,-0.1599,-0.1599,-0.2501,-0.2451,-0.2481,-0.2288,-0.2273,-0.2046,-0.1931,-0.1789,-0.1694,-0.1445,-0.1356,-0.1326,-0.1459,-0.1725,-0.1724,-0.1664,-0.1682,-0.1591,-0.1631,-0.1811,-0.1846,-0.188,-0.1873,-0.1549,-0.1549,-0.1457,-0.1457,-0.1457]},{"header":{"parameterUnit":"m.s-1","parameterCategory":2,"la1":30.2991,"la2":30.254,"lo1":-89.0895,"lo2":-89.0444,"dy":0.0017,"dx":0.0017,"nx":28,"ny":28,"refTime":"2023-04-26T15:00:00:Z","depth":"0","parameterNumber":3,"parameterNumberName":"V-component_of_CURRENTS"},"data":[0,0,0,0,0,0,0,0,0,0,0,0,0,0,0,0,0,0,0,0,0,0,0,0,0,0,0,0,0,0,0,0,0,0,0,0,0,0,0,0,0,0,0,0,0,0,0,0,0,0,0,0,0,0,0,0,0,0,0.0508,0.0509,0,0.0689,0.0692,0.0694,0.0748,0.0747,0.0746,0.0745,0.0901,0.0906,0.0911,0,0,0,0,0,0,0,0,0,0,0,0,0,0.0386,0.0387,0.0507,0.0509,0.0511,0.0689,0.0692,0.0694,0.0748,0.0747,0.0745,0.0744,0.0899,0.0905,0.0912,0,0,0,0,0,0,0,0,0,0,0,0,0,0.0493,0.0387,0.0507,0.0557,0.0564,0.0688,0.0692,0.0695,0.0749,0.0747,0.0745,0.0743,0.0897,0.0905,0.0912,0.0998,0,0,0.0937,0.094,0,0,0,0,0,0,0,0,0.0486,0.0497,0.0548,0.0554,0.0561,0.0691,0.0706,0.0794,0.0749,0.0682,0.0744,0.0742,0.0828,0.0841,0.0884,0.1005,0.1012,0.0937,0.0942,0.0946,0.0948,0,0,0,0,0,0,0,0.0479,0.0491,0.0582,0.055,0.0558,0.0632,0.0644,0.0724,0.0764,0.0687,0.0691,0.0707,0.0831,0.0876,0.0888,0.1014,0.0937,0.0944,0.0949,0.0952,0.1216,0.1218,0,0,0,0,0,0,0.0443,0.0483,0.0577,0.0588,0.0515,0.0635,0.0648,0.0654,0.0764,0.0779,0.0708,0.0709,0.0864,0.0879,0.0894,0.0985,0.0946,0.0953,0.0958,0.1214,0.1217,0.1219,0,0,0,0,0,0,0.044,0.0449,0.0569,0.0538,0.0558,0.0637,0.0644,0.0658,0.0695,0.078,0.0794,0.0728,0.0863,0.0883,0.0972,0.0992,0.0957,0.0964,0.1211,0.1215,0.1218,0.1179,0,0,0,0,0,0,0.0435,0.0447,0.0442,0.0535,0.0558,0.0631,0.0646,0.0663,0.0706,0.0709,0.0802,0.0815,0.0863,0.096,0.098,0.1002,0.097,0.1208,0.1213,0.1217,0.1177,0.118,0.1183,0,0,0,0,0,0.043,0.042,0.044,0.0452,0.0547,0.0632,0.0651,0.0705,0.0708,0.073,0.0801,0.0812,0.1001,0.0969,0.0992,0.1016,0.1206,0.1212,0.1216,0.1176,0.118,0.1183,0,0,0,0,0,0,0.0355,0.0427,0.0451,0.0459,0.0536,0.0639,0.0656,0.0703,0.078,0.0773,0.085,0.0871,0.0953,0.1002,0.0965,0.1108,0.1103,0.1113,0.1064,0.1069,0.1071,0.1035,0.0977,0,0,0,0,0,0.0339,0.035,0.0441,0.0448,0.0478,0.057,0.061,0.0653,0.0731,0.0762,0.0834,0.0914,0.0999,0.1042,0.1118,0.1206,0.1229,0.1236,0.1239,0.1241,0.123,0.1323,0.1332,0.1236,0.1236,0.1236,0,0,0.0308,0.0351,0.0355,0.0434,0.049,0.0534,0.0589,0.0641,0.0685,0.0769,0.0842,0.0925,0.1024,0.1116,0.1157,0.1155,0.1274,0.1248,0.1248,0.1236,0.1329,0.1338,0.1346,0.1239,0.1239,0.1238,0,0,0.0255,0.0292,0.0287,0.035,0.0432,0.05,0.051,0.0619,0.067,0.0767,0.0835,0.0935,0.1058,0.1144,0.12,0.1272,0.1284,0.1291,0.1281,0.1371,0.1379,0.1386,0.1381,0.1388,0.1295,0.1295,0.1295,0,0.0213,0.0219,0.0302,0.0326,0.0364,0.0474,0.049,0.0575,0.0703,0.0754,0.0773,0.0997,0.1074,0.1207,0.1227,0.1276,0.1293,0.1251,0.1371,0.1379,0.1387,0.1381,0.1389,0.1294,0.1294,0.1294,0.1294,0,0.0167,0.018,0.0183,0.0244,0.0309,0.0338,0.0462,0.0531,0.0606,0.0699,0.0845,0.0989,0.1111,0.1168,0.1217,0.1327,0.1305,0.1356,0.1348,0.1394,0.1385,0.1394,0.1292,0.1293,0.1293,0.1293,0,0,0.0043,0.0127,0.0124,0.0138,0.0263,0.0303,0.039,0.0503,0.0555,0.0711,0.0798,0.0985,0.1067,0.1138,0.1241,0.1336,0.1396,0.1357,0.1363,0.1324,0.1522,0.1402,0.14,0.1467,0.1469,0.1472,0.1474,0,-0.0027,-0.0042,0.0052,0.0065,0.0066,0.0214,0.0291,0.0417,0.054,0.0657,0.0846,0.0963,0.1058,0.1118,0.1235,0.1364,0.1427,0.1386,0.1508,0.1509,0.1377,0.1411,0.1501,0.1504,0.1483,0.1484,0.1486,0,-0.0112,-0.011,-0.0131,-0.0042,-0.0021,0.0022,0.0151,0.0242,0.0449,0.0551,0.0723,0.0866,0.1043,0.1112,0.1344,0.1309,0.1394,0.1493,0.1497,0.1405,0.1409,0.147,0.1521,0.1718,0.15,0.1499,0.1498,0,-0.0283,-0.0234,-0.0268,-0.0239,-0.0113,-0.008,-0.0003,0.0186,0.027,0.0472,0.0544,0.0794,0.0895,0.1091,0.1267,0.1313,0.1477,0.1572,0.1539,0.1528,0.1638,0.1632,0.1877,0.171,0.171,0.171,0.171,0,-0.0404,-0.043,-0.0361,-0.0377,-0.0387,-0.0235,-0.0187,-0.0066,0.0122,0.022,0.0458,0.0567,0.0897,0.104,0.1221,0.1362,0.1433,0.152,0.1537,0.1619,0.1612,0.1812,0.1873,0.171,0.171,0.171,0.171,0,-0.0577,-0.0537,-0.0573,-0.0494,-0.0472,-0.0485,-0.0339,-0.0277,-0.0101,0.0031,0.0086,0.0378,0.0566,0.0824,0.1108,0.1254,0.1518,0.1449,0.1457,0.1474,0.1647,0.1699,0.1819,0.1913,0.1458,0.1455,0.1453,0,-0.0662,-0.0712,-0.0701,-0.0723,-0.0693,-0.067,-0.0621,-0.0428,-0.0333,-0.0083,-0.0025,0.0172,0.0366,0.0674,0.0966,0.1217,0.1389,0.1393,0.1525,0.1646,0.1723,0.1738,0.1814,0.1652,0.1651,0.1651,0.165,0,-0.0819,-0.0828,-0.0851,-0.0908,-0.0903,-0.0868,-0.0783,-0.0738,-0.0478,-0.035,-0.015,0.0011,0.0325,0.0696,0.0957,0.112,0.1524,0.1385,0.1595,0.1935,0.1898,0.1998,0.1581,0.1647,0.1647,0.1648,0.1648,0.1648,-0.0927,-0.0998,-0.1025,-0.1067,-0.1061,-0.1012,-0.0964,-0.0824,-0.068,-0.0338,-0.0231,0.0158,0.0581,0.1008,0.115,0.1519,0.1471,0.1728,0.1785,0.1791,0.1884,0.1356,0.1382,0.1381,0.138,0.1379,0.1378,0,-0.1039,-0.1093,-0.1158,-0.1178,-0.1164,-0.1119,-0.1002,-0.087,-0.0684,-0.0289,-0.0021,0.0613,0.1032,0.1417,0.1854,0.2021,0.2102,0.2081,0.2264,0.2331,0.1986,0.2002,0.2063,0.2063,0.2063,0.2062,0.2062,0.2062,-0.1098,-0.1194,-0.1218,-0.1231,-0.1217,-0.1127,-0.1042,-0.0828,-0.051,0.0119,0.0648,0.1028,0.1494,0.2092,0.2515,0.2522,0.2729,0.2601,0.2674,0.2592,0.2569,0.2548,0.2587,0.277,0.277,0.3096,0.31,0.3102]}],[{"header":{"parameterUnit":"m.s-1","parameterCategory":2,"la1":30.2991,"la2":30.254,"lo1":-89.0895,"lo2":-89.0444,"dy":0.0017,"dx":0.0017,"nx":28,"ny":28,"refTime":"2023-04-26T15:00:00:Z","depth":"2","parameterNumber":2,"parameterNumberName":"U-component_of_CURRENTS"},"data":[0,0,0,0,0,0,0,0,0,0,0,0,0,0,0,0,0,0,0,0,0,0,0,0,0,0,0,0,0,0,0,0,0,0,0,0,0,0,0,0,0,0,0,0,0,0,0,0,0,0,0,0,0,0,0,0,0,0,-0.2542,-0.2543,0,-0.2543,-0.2543,-0.2542,-0.2513,-0.2513,-0.2512,-0.2512,-0.2392,-0.2389,-0.2387,0,0,0,0,0,0,0,0,0,0,0,0,0,-0.2444,-0.2446,-0.2542,-0.2543,-0.2543,-0.2543,-0.2543,-0.2542,-0.2513,-0.2513,-0.2512,-0.2512,-0.2393,-0.239,-0.2386,0,0,0,0,0,0,0,0,0,0,0,0,0,-0.2464,-0.2446,-0.2542,-0.2533,-0.2533,-0.2543,-0.2543,-0.2542,-0.2513,-0.2513,-0.2512,-0.2512,-0.2395,-0.239,-0.2386,-0.2365,0,0,-0.2372,-0.237,0,0,0,0,0,0,0,0,-0.2463,-0.2467,-0.2534,-0.2534,-0.2534,-0.2533,-0.2465,-0.2479,-0.2513,-0.2514,-0.2512,-0.2512,-0.2432,-0.2425,-0.2419,-0.2359,-0.2354,-0.2372,-0.2369,-0.2367,-0.2366,0,0,0,0,0,0,0,-0.2462,-0.2467,-0.2536,-0.2535,-0.2535,-0.2506,-0.2508,-0.2467,-0.2468,-0.2514,-0.2513,-0.2523,-0.2431,-0.2423,-0.2415,-0.2352,-0.2372,-0.2368,-0.2365,-0.2363,-0.2339,-0.2341,0,0,0,0,0,0,-0.2479,-0.2466,-0.2536,-0.2537,-0.2504,-0.2508,-0.2511,-0.2528,-0.2471,-0.2465,-0.2524,-0.2522,-0.2431,-0.2421,-0.2411,-0.2474,-0.2367,-0.2363,-0.236,-0.2337,-0.2339,-0.2341,0,0,0,0,0,0,-0.2477,-0.2485,-0.2536,-0.2505,-0.2511,-0.2512,-0.2531,-0.2529,-0.2533,-0.2481,-0.2471,-0.2533,-0.243,-0.2417,-0.2406,-0.2466,-0.2361,-0.2357,-0.2334,-0.2337,-0.234,-0.2541,0,0,0,0,0,0,-0.2474,-0.2485,-0.2499,-0.2507,-0.2514,-0.2571,-0.2532,-0.2529,-0.2542,-0.254,-0.2485,-0.2473,-0.2429,-0.2414,-0.2402,-0.2458,-0.2353,-0.2332,-0.2336,-0.2339,-0.2532,-0.2551,-0.2567,0,0,0,0,0,-0.2471,-0.2501,-0.25,-0.2508,-0.2535,-0.2574,-0.2575,-0.2568,-0.2544,-0.2565,-0.2529,-0.2475,-0.2429,-0.2412,-0.2397,-0.2453,-0.233,-0.2335,-0.2339,-0.2524,-0.2547,-0.2566,0,0,0,0,0,0,-0.2467,-0.2502,-0.25,-0.2539,-0.2567,-0.2572,-0.2588,-0.2579,-0.2567,-0.2555,-0.2496,-0.2483,-0.2494,-0.244,-0.2422,-0.2456,-0.2372,-0.2374,-0.2518,-0.2539,-0.2556,-0.2581,-0.235,0,0,0,0,0,-0.2474,-0.2502,-0.2535,-0.2564,-0.2584,-0.2585,-0.2595,-0.2595,-0.2589,-0.2584,-0.2559,-0.2521,-0.25,-0.2494,-0.2459,-0.2475,-0.2416,-0.2501,-0.2519,-0.2534,-0.2544,-0.2535,-0.2553,-0.2356,-0.2356,-0.2356,0,0,-0.2482,-0.2502,-0.2519,-0.2565,-0.2578,-0.2647,-0.259,-0.2621,-0.268,-0.2569,-0.263,-0.2573,-0.2513,-0.2541,-0.2542,-0.2508,-0.2555,-0.254,-0.2554,-0.2555,-0.2542,-0.2561,-0.2578,-0.2359,-0.2359,-0.2358,0,0,-0.2528,-0.2532,-0.2584,-0.2627,-0.2667,-0.2678,-0.2697,-0.2724,-0.2736,-0.2777,-0.2716,-0.2704,-0.2679,-0.2664,-0.2646,-0.2733,-0.2639,-0.2718,-0.2839,-0.2832,-0.2849,-0.2862,-0.2798,-0.2804,-0.2738,-0.2739,-0.2739,0,-0.253,-0.2613,-0.2604,-0.2685,-0.2733,-0.2709,-0.2795,-0.2817,-0.284,-0.2851,-0.2823,-0.2794,-0.2747,-0.2776,-0.2817,-0.2777,-0.2732,-0.2771,-0.2858,-0.287,-0.2881,-0.2811,-0.2816,-0.2749,-0.2748,-0.2747,-0.2746,0,-0.2632,-0.2713,-0.275,-0.2847,-0.2893,-0.2956,-0.3001,-0.3034,-0.3032,-0.3042,-0.3063,-0.3005,-0.2976,-0.2979,-0.2929,-0.2985,-0.2912,-0.2876,-0.2812,-0.2914,-0.2832,-0.2833,-0.2763,-0.276,-0.2757,-0.2754,0,0,-0.2599,-0.2785,-0.28,-0.2879,-0.2984,-0.3021,-0.3129,-0.3197,-0.3219,-0.3254,-0.3281,-0.3288,-0.3216,-0.319,-0.3122,-0.3139,-0.3175,-0.3058,-0.3053,-0.3006,-0.3121,-0.2961,-0.2945,-0.3161,-0.3163,-0.3165,-0.3028,0,-0.2681,-0.2861,-0.2932,-0.3096,-0.3195,-0.3229,-0.3316,-0.3365,-0.3367,-0.3383,-0.3354,-0.3338,-0.331,-0.3265,-0.3292,-0.3172,-0.319,-0.3212,-0.3018,-0.3011,-0.2868,-0.2946,-0.2747,-0.26,-0.3029,-0.3029,-0.3029,0,-0.2758,-0.2873,-0.3059,-0.3219,-0.3256,-0.3338,-0.341,-0.3486,-0.3511,-0.3503,-0.3505,-0.3439,-0.3441,-0.3393,-0.3327,-0.3339,-0.3262,-0.3197,-0.3189,-0.2971,-0.2854,-0.2569,-0.2584,-0.3029,-0.3029,-0.3029,-0.3029,0,-0.273,-0.2948,-0.3089,-0.3159,-0.3338,-0.3395,-0.3459,-0.3511,-0.3537,-0.3553,-0.3524,-0.3527,-0.3456,-0.3432,-0.3268,-0.331,-0.3151,-0.3179,-0.2975,-0.2959,-0.2714,-0.2674,-0.3172,-0.3172,-0.3172,-0.3173,-0.3173,0,-0.2787,-0.2899,-0.3083,-0.3167,-0.3277,-0.3393,-0.3457,-0.3513,-0.3546,-0.3506,-0.3559,-0.3471,-0.3467,-0.3347,-0.3274,-0.3077,-0.3148,-0.3,-0.293,-0.2773,-0.2742,-0.3053,-0.3041,-0.3167,-0.3168,-0.3169,-0.317,0,-0.2758,-0.2894,-0.3054,-0.3239,-0.3282,-0.335,-0.3455,-0.3458,-0.3524,-0.3461,-0.3459,-0.3425,-0.326,-0.3196,-0.3064,-0.3017,-0.2883,-0.2796,-0.2576,-0.2486,-0.2712,-0.2712,-0.2627,-0.2621,-0.2615,-0.2611,-0.2607,0,-0.2778,-0.2865,-0.3062,-0.3106,-0.3192,-0.3293,-0.3317,-0.3427,-0.3399,-0.336,-0.3281,-0.3169,-0.2987,-0.2769,-0.2646,-0.2497,-0.2632,-0.2275,-0.2362,-0.2724,-0.2664,-0.2673,-0.268,-0.2102,-0.2094,-0.2088,-0.2083,0,-0.2781,-0.2838,-0.2943,-0.3023,-0.3073,-0.3123,-0.3159,-0.3125,-0.3154,-0.3122,-0.2946,-0.2824,-0.2606,-0.2344,-0.2187,-0.2095,-0.2304,-0.2144,-0.2556,-0.2276,-0.2218,-0.2164,-0.219,-0.2027,-0.2033,-0.2037,-0.204,-0.2042,-0.2722,-0.2763,-0.2839,-0.2854,-0.2936,-0.2858,-0.2762,-0.2769,-0.2686,-0.2502,-0.2537,-0.2294,-0.2246,-0.1881,-0.1755,-0.1693,-0.1877,-0.1865,-0.1889,-0.1919,-0.1888,-0.1825,-0.155,-0.1553,-0.1555,-0.1557,-0.1559,0,-0.2567,-0.2583,-0.2632,-0.2612,-0.2533,-0.2661,-0.2562,-0.2388,-0.2167,-0.211,-0.1967,-0.1671,-0.1513,-0.1475,-0.1294,-0.1299,-0.1345,-0.1271,-0.1347,-0.1399,-0.1447,-0.1399,-0.0928,-0.0926,-0.0925,-0.0924,0,0,-0.2474,-0.2383,-0.2349,-0.2116,-0.2144,-0.1973,-0.1845,-0.1667,-0.1566,-0.1344,-0.1247,-0.1328,-0.1369,-0.1118,-0.1091,-0.0971,-0.1174,-0.0923,-0.1418,-0.1551,-0.1597,-0.1765,-0.1744,0,0,0,0,0]},{"header":{"parameterUnit":"m.s-1","parameterCategory":2,"la1":30.2991,"la2":30.254,"lo1":-89.0895,"lo2":-89.0444,"dy":0.0017,"dx":0.0017,"nx":28,"ny":28,"refTime":"2023-04-26T15:00:00:Z","depth":"2","parameterNumber":3,"parameterNumberName":"V-component_of_CURRENTS"},"data":[0,0,0,0,0,0,0,0,0,0,0,0,0,0,0,0,0,0,0,0,0,0,0,0,0,0,0,0,0,0,0,0,0,0,0,0,0,0,0,0,0,0,0,0,0,0,0,0,0,0,0,0,0,0,0,0,0,0,0.0263,0.0265,0,0.0442,0.0444,0.0446,0.0562,0.0563,0.0564,0.0564,0.0749,0.0753,0.0757,0,0,0,0,0,0,0,0,0,0,0,0,0,0.0073,0.0076,0.0263,0.0265,0.0267,0.0442,0.0444,0.0447,0.0562,0.0563,0.0564,0.0565,0.0748,0.0753,0.0758,0,0,0,0,0,0,0,0,0,0,0,0,0,0.0194,0.0076,0.0262,0.0346,0.0355,0.0441,0.0444,0.0447,0.0562,0.0563,0.0564,0.0565,0.0746,0.0752,0.0758,0.0776,0,0,0.0778,0.0781,0,0,0,0,0,0,0,0,0.0187,0.0201,0.0331,0.034,0.0351,0.0481,0.0445,0.0558,0.0562,0.0483,0.0564,0.0566,0.0659,0.0673,0.0704,0.0784,0.0792,0.0778,0.0782,0.0785,0.0787,0,0,0,0,0,0,0,0.0178,0.0194,0.0334,0.0334,0.0346,0.0393,0.041,0.0467,0.0563,0.049,0.0499,0.0519,0.0665,0.0697,0.0709,0.0795,0.0778,0.0784,0.0788,0.079,0.0998,0.1,0,0,0,0,0,0,0.0153,0.0186,0.0328,0.0339,0.027,0.0395,0.0415,0.0438,0.0563,0.0583,0.0518,0.0524,0.0686,0.0701,0.0716,0.0807,0.0785,0.0791,0.0794,0.0997,0.0999,0.1,0,0,0,0,0,0,0.0148,0.0164,0.0321,0.0266,0.029,0.0397,0.0422,0.0441,0.0497,0.0583,0.0604,0.0557,0.0687,0.0707,0.0795,0.0813,0.0794,0.0799,0.0995,0.0997,0.1,0.095,0,0,0,0,0,0,0.0142,0.0161,0.0173,0.0265,0.0292,0.0359,0.0422,0.0444,0.0506,0.0516,0.0623,0.064,0.069,0.0786,0.0802,0.0821,0.0804,0.0992,0.0996,0.0999,0.0949,0.095,0.0951,0,0,0,0,0,0.0134,0.0137,0.0172,0.019,0.0303,0.0358,0.0376,0.0456,0.0507,0.0515,0.0613,0.0638,0.0817,0.0792,0.0811,0.0832,0.0991,0.0995,0.0998,0.0949,0.095,0.0951,0,0,0,0,0,0,0.0064,0.0152,0.0192,0.0224,0.0282,0.0377,0.0401,0.0461,0.0547,0.0565,0.066,0.0683,0.0771,0.0811,0.0781,0.0905,0.0908,0.0916,0.0864,0.0866,0.0867,0.0818,0.081,0,0,0,0,0,0.0052,0.0072,0.0164,0.0184,0.0217,0.0314,0.0353,0.0401,0.0487,0.0527,0.0623,0.0718,0.0798,0.0838,0.0913,0.0972,0.0998,0.1001,0.1002,0.1002,0.0978,0.1083,0.109,0.1013,0.1013,0.1013,0,0,0.0033,0.0079,0.0096,0.0169,0.0229,0.0257,0.034,0.0386,0.0429,0.0532,0.0637,0.0727,0.0818,0.0896,0.0937,0.0932,0.103,0.1007,0.1006,0.0981,0.1088,0.1095,0.1101,0.1016,0.1015,0.1015,0,0,-0.0027,0.0045,0.0036,0.009,0.0163,0.0217,0.0231,0.0345,0.0419,0.0519,0.0612,0.0704,0.0844,0.0902,0.0949,0.0997,0.1039,0.1039,0.0995,0.1098,0.1104,0.111,0.1104,0.111,0.103,0.103,0.103,0,-0.0076,-0.0046,0.0039,0.0051,0.0096,0.0196,0.0205,0.0286,0.042,0.0488,0.0543,0.0766,0.0838,0.0923,0.0946,0.0993,0.1037,0.0977,0.1096,0.1103,0.111,0.1103,0.111,0.1028,0.1029,0.1029,0.1029,0,-0.0131,-0.0095,-0.0092,-0.0043,0.0011,0.0032,0.0152,0.0224,0.0337,0.0437,0.0585,0.0706,0.0827,0.0877,0.0928,0.1014,0.102,0.1089,0.1081,0.1114,0.1105,0.1113,0.1026,0.1026,0.1027,0.1027,0,0,-0.0272,-0.0167,-0.0159,-0.0143,-0.0029,-0.0009,0.0081,0.0182,0.023,0.0408,0.0499,0.0662,0.075,0.0807,0.0893,0.0977,0.1049,0.105,0.1056,0.1018,0.1217,0.1144,0.1145,0.1168,0.117,0.1172,0.1171,0,-0.0351,-0.0384,-0.0266,-0.0259,-0.026,-0.0103,-0.003,0.0087,0.0208,0.0322,0.0497,0.0612,0.0719,0.0772,0.0882,0.1034,0.1079,0.1037,0.1211,0.1213,0.1127,0.1157,0.111,0.1102,0.1179,0.1181,0.1182,0,-0.0436,-0.0446,-0.047,-0.0372,-0.0347,-0.0307,-0.0193,-0.0103,0.0088,0.0196,0.035,0.0494,0.0652,0.0734,0.098,0.0967,0.1065,0.1166,0.1171,0.1123,0.1158,0.1096,0.1114,0.1196,0.1195,0.1194,0.1193,0,-0.0627,-0.057,-0.0607,-0.0571,-0.0453,-0.0398,-0.0314,-0.0145,-0.0064,0.0112,0.017,0.0402,0.0511,0.0728,0.0953,0.0989,0.1194,0.127,0.1264,0.1256,0.1253,0.1241,0.139,0.139,0.139,0.139,0.139,0,-0.077,-0.0783,-0.0698,-0.0714,-0.0718,-0.0545,-0.0501,-0.0389,-0.0217,-0.0116,0.0092,0.0191,0.0531,0.0708,0.0912,0.1104,0.1168,0.1234,0.1269,0.1228,0.1215,0.1342,0.1337,0.1389,0.1389,0.1389,0.1389,0,-0.0967,-0.091,-0.0943,-0.0848,-0.081,-0.0805,-0.0628,-0.0591,-0.0414,-0.0289,-0.0226,0.0047,0.0289,0.0543,0.086,0.1012,0.1217,0.1242,0.1107,0.1127,0.1203,0.1195,0.1247,0.1245,0.1243,0.1242,0.124,0,-0.106,-0.1123,-0.1084,-0.1097,-0.1045,-0.099,-0.0932,-0.0722,-0.0628,-0.0353,-0.0284,-0.0068,0.0146,0.0506,0.0789,0.1046,0.1108,0.1107,0.1168,0.1167,0.1198,0.1193,0.1188,0.1123,0.1121,0.1119,0.1118,0,-0.126,-0.1256,-0.1293,-0.1335,-0.1301,-0.1222,-0.1085,-0.1044,-0.0737,-0.0604,-0.0338,-0.0157,0.0162,0.0475,0.0735,0.0895,0.108,0.1074,0.117,0.1156,0.1049,0.1079,0.1079,0.1102,0.1104,0.1105,0.1106,0.1106,-0.1395,-0.1495,-0.1542,-0.1555,-0.1513,-0.1379,-0.1279,-0.1105,-0.0915,-0.0565,-0.0396,-0.007,0.018,0.0583,0.0763,0.091,0.0953,0.1036,0.1044,0.1053,0.1028,0.0924,0.0942,0.0943,0.0943,0.0944,0.0944,0,-0.1569,-0.1658,-0.1733,-0.1699,-0.1626,-0.1538,-0.1313,-0.1149,-0.0894,-0.062,-0.0318,-0.001,0.0315,0.0542,0.077,0.0915,0.0945,0.0913,0.0954,0.0967,0.0979,0.0954,0.0847,0.0847,0.0848,0.0848,0,0,-0.1677,-0.1818,-0.1846,-0.1757,-0.1697,-0.1474,-0.1313,-0.1112,-0.0871,-0.0573,-0.0296,0.0074,0.033,0.0484,0.0639,0.0741,0.0801,0.0727,0.0786,0.0821,0.0831,0.1028,0.1,0,0,0,0,0]}],[{"header":{"parameterUnit":"m.s-1","parameterCategory":2,"la1":30.2991,"la2":30.254,"lo1":-89.0895,"lo2":-89.0444,"dy":0.0017,"dx":0.0017,"nx":28,"ny":28,"refTime":"2023-04-26T15:00:00:Z","depth":"4","parameterNumber":2,"parameterNumberName":"U-component_of_CURRENTS"},"data":[0,0,0,0,0,0,0,0,0,0,0,0,0,0,0,0,0,0,0,0,0,0,0,0,0,0,0,0,0,0,0,0,0,0,0,0,0,0,0,0,0,0,0,0,0,0,0,0,0,0,0,0,0,0,0,0,0,0,-0.0944,-0.0944,0,-0.1008,-0.1009,-0.101,-0.108,-0.1081,-0.1081,-0.1081,-0.1208,-0.1211,-0.1214,0,0,0,0,0,0,0,0,0,0,0,0,0,-0.0847,-0.0849,-0.0944,-0.0944,-0.0945,-0.1007,-0.1009,-0.101,-0.108,-0.1081,-0.1081,-0.1082,-0.1207,-0.1211,-0.1214,0,0,0,0,0,0,0,0,0,0,0,0,0,-0.0904,-0.085,-0.0944,-0.0982,-0.0986,-0.1007,-0.1009,-0.1011,-0.108,-0.1081,-0.1081,-0.1082,-0.1206,-0.1211,-0.1215,-0.123,0,0,-0.1229,-0.1231,0,0,0,0,0,0,0,0,-0.0901,-0.0908,-0.0976,-0.0979,-0.0983,-0.1031,-0.1021,-0.1085,-0.108,-0.1051,-0.1081,-0.1082,-0.115,-0.1159,-0.1178,-0.1236,-0.1242,-0.1229,-0.1232,-0.1234,-0.1235,0,0,0,0,0,0,0,-0.0897,-0.0906,-0.0976,-0.0976,-0.0981,-0.0983,-0.0993,-0.1033,-0.1103,-0.1054,-0.1057,-0.1054,-0.1154,-0.1174,-0.1182,-0.1243,-0.1229,-0.1233,-0.1236,-0.1237,-0.1419,-0.1421,0,0,0,0,0,0,-0.0877,-0.0902,-0.0974,-0.0977,-0.0935,-0.0984,-0.0995,-0.102,-0.1101,-0.1111,-0.1053,-0.1057,-0.1166,-0.1176,-0.1187,-0.1344,-0.1234,-0.1238,-0.124,-0.1417,-0.142,-0.1422,0,0,0,0,0,0,-0.0875,-0.0884,-0.0971,-0.0934,-0.0944,-0.0984,-0.1012,-0.1021,-0.1061,-0.1098,-0.1112,-0.1085,-0.1167,-0.118,-0.1266,-0.1344,-0.124,-0.1244,-0.1414,-0.1418,-0.1421,-0.1571,0,0,0,0,0,0,-0.0873,-0.0884,-0.0916,-0.0934,-0.0945,-0.1007,-0.1011,-0.1022,-0.1053,-0.106,-0.113,-0.1141,-0.1168,-0.126,-0.1271,-0.1348,-0.1247,-0.1412,-0.1416,-0.142,-0.1564,-0.1579,-0.1593,0,0,0,0,0,-0.087,-0.0907,-0.0918,-0.0927,-0.0983,-0.1008,-0.1016,-0.1049,-0.1054,-0.1086,-0.1144,-0.114,-0.1292,-0.1266,-0.1278,-0.1359,-0.141,-0.1415,-0.1419,-0.1557,-0.1576,-0.1592,0,0,0,0,0,0,-0.0887,-0.0917,-0.093,-0.0978,-0.0999,-0.1018,-0.1046,-0.1057,-0.1125,-0.1147,-0.1175,-0.1192,-0.1288,-0.1293,-0.1262,-0.1416,-0.1347,-0.1355,-0.1448,-0.1466,-0.148,-0.1522,-0.1251,0,0,0,0,0,-0.0901,-0.0938,-0.0957,-0.0996,-0.1007,-0.1028,-0.1046,-0.1072,-0.1116,-0.1146,-0.1204,-0.1259,-0.1313,-0.1365,-0.1405,-0.15,-0.1452,-0.1553,-0.1567,-0.158,-0.162,-0.1643,-0.1665,-0.1438,-0.1438,-0.1437,0,0,-0.0912,-0.0936,-0.0956,-0.1002,-0.1021,-0.1051,-0.1045,-0.1086,-0.1142,-0.115,-0.1268,-0.1307,-0.1341,-0.1452,-0.1496,-0.1476,-0.1596,-0.1586,-0.1597,-0.1631,-0.1651,-0.1673,-0.1693,-0.1441,-0.144,-0.144,0,0,-0.0929,-0.0979,-0.1003,-0.1029,-0.1065,-0.1089,-0.11,-0.1151,-0.1211,-0.1308,-0.1332,-0.1458,-0.1508,-0.161,-0.1643,-0.1765,-0.1656,-0.1725,-0.1867,-0.1889,-0.1909,-0.1926,-0.1796,-0.1801,-0.1755,-0.1755,-0.1755,0,-0.0936,-0.0983,-0.1013,-0.1042,-0.1066,-0.1103,-0.1132,-0.1201,-0.1289,-0.1335,-0.1364,-0.1523,-0.1612,-0.1743,-0.1826,-0.1814,-0.1713,-0.1803,-0.1911,-0.1928,-0.1942,-0.1806,-0.1809,-0.1763,-0.1762,-0.1761,-0.176,0,-0.0969,-0.1009,-0.1025,-0.108,-0.1117,-0.1155,-0.1227,-0.1315,-0.1387,-0.1431,-0.1581,-0.1728,-0.1829,-0.1881,-0.1919,-0.2064,-0.191,-0.1908,-0.1872,-0.1975,-0.1822,-0.1822,-0.1774,-0.1771,-0.1769,-0.1767,0,0,-0.0961,-0.103,-0.1039,-0.1059,-0.1145,-0.1168,-0.1291,-0.1377,-0.14,-0.1591,-0.167,-0.1918,-0.1984,-0.2036,-0.2109,-0.2202,-0.2264,-0.212,-0.2117,-0.1997,-0.2153,-0.204,-0.2027,-0.2239,-0.2243,-0.2246,-0.1967,0,-0.0969,-0.1011,-0.1065,-0.1118,-0.1135,-0.123,-0.1319,-0.1416,-0.1471,-0.1565,-0.1795,-0.192,-0.2032,-0.2133,-0.224,-0.2269,-0.2284,-0.2331,-0.2067,-0.2058,-0.1956,-0.2037,-0.2257,-0.1967,-0.1967,-0.1967,-0.1967,0,-0.0979,-0.1003,-0.1044,-0.1115,-0.1134,-0.1197,-0.1288,-0.1378,-0.1511,-0.1589,-0.1759,-0.186,-0.2149,-0.2204,-0.2317,-0.2305,-0.2256,-0.2252,-0.2239,-0.2104,-0.1954,-0.1865,-0.1966,-0.1966,-0.1966,-0.1966,-0.1966,0,-0.0926,-0.0992,-0.1021,-0.1048,-0.1138,-0.1211,-0.13,-0.1382,-0.1448,-0.1642,-0.1675,-0.1918,-0.206,-0.2149,-0.2217,-0.2259,-0.2185,-0.2231,-0.2033,-0.2014,-0.2126,-0.2112,-0.2239,-0.2239,-0.224,-0.2241,-0.2242,0,-0.0899,-0.0925,-0.1003,-0.1019,-0.1069,-0.1175,-0.1229,-0.1337,-0.1466,-0.1514,-0.1714,-0.1793,-0.2053,-0.2045,-0.2126,-0.2056,-0.2107,-0.2069,-0.1984,-0.2175,-0.2171,-0.2117,-0.2107,-0.223,-0.2233,-0.2235,-0.2237,0,-0.083,-0.0879,-0.0911,-0.1009,-0.104,-0.1096,-0.1243,-0.1257,-0.1393,-0.1467,-0.1594,-0.1711,-0.179,-0.1848,-0.1915,-0.1883,-0.1892,-0.18,-0.1871,-0.1788,-0.1705,-0.1705,-0.1633,-0.1628,-0.1623,-0.162,-0.1617,0,-0.0801,-0.0806,-0.0886,-0.0898,-0.0951,-0.1045,-0.1092,-0.1261,-0.1275,-0.1412,-0.1438,-0.1526,-0.1613,-0.1534,-0.1656,-0.1669,-0.1676,-0.1549,-0.183,-0.1743,-0.1666,-0.1673,-0.168,-0.161,-0.1608,-0.1607,-0.1606,0,-0.0737,-0.0775,-0.0801,-0.0818,-0.0862,-0.0913,-0.1005,-0.1049,-0.1226,-0.1276,-0.136,-0.1448,-0.1399,-0.1518,-0.1423,-0.1481,-0.1638,-0.1506,-0.152,-0.1784,-0.1713,-0.1643,-0.1654,-0.1591,-0.1593,-0.1595,-0.1595,0,-0.0703,-0.0695,-0.0722,-0.0746,-0.0778,-0.0827,-0.0901,-0.098,-0.1064,-0.1231,-0.1238,-0.1344,-0.1404,-0.14,-0.1385,-0.1384,-0.1469,-0.1458,-0.1477,-0.1494,-0.1599,-0.1498,-0.1254,0,0,0,0,0,-0.0653,-0.0633,-0.0643,-0.0668,-0.0704,-0.0728,-0.0836,-0.0915,-0.1045,-0.1089,-0.1203,-0.124,-0.1308,-0.1331,-0.1328,-0.1329,-0.1441,-0.1311,-0.1431,-0.1506,-0.1524,-0.1673,0,0,0,0,0,0,-0.0603,-0.0603,-0.0611,-0.0608,-0.0614,-0.0647,-0.0744,-0.084,-0.0893,-0.1029,-0.108,-0.1129,-0.1202,-0.1298,-0.1287,-0.129,-0.1341,-0.1353,-0.1349,-0.1496,-0.1512,-0.1527,-0.1686,0,0,0,0,0]},{"header":{"parameterUnit":"m.s-1","parameterCategory":2,"la1":30.2991,"la2":30.254,"lo1":-89.0895,"lo2":-89.0444,"dy":0.0017,"dx":0.0017,"nx":28,"ny":28,"refTime":"2023-04-26T15:00:00:Z","depth":"4","parameterNumber":3,"parameterNumberName":"V-component_of_CURRENTS"},"data":[0,0,0,0,0,0,0,0,0,0,0,0,0,0,0,0,0,0,0,0,0,0,0,0,0,0,0,0,0,0,0,0,0,0,0,0,0,0,0,0,0,0,0,0,0,0,0,0,0,0,0,0,0,0,0,0,0,0,-0.0503,-0.0503,0,-0.0491,-0.0491,-0.0491,-0.0484,-0.0484,-0.0483,-0.0483,-0.0496,-0.0497,-0.0497,0,0,0,0,0,0,0,0,0,0,0,0,0,-0.0515,-0.0515,-0.0503,-0.0503,-0.0502,-0.0491,-0.0491,-0.0491,-0.0484,-0.0484,-0.0483,-0.0483,-0.0496,-0.0497,-0.0498,0,0,0,0,0,0,0,0,0,0,0,0,0,-0.0511,-0.0515,-0.0503,-0.0495,-0.0493,-0.0491,-0.0491,-0.0492,-0.0484,-0.0484,-0.0483,-0.0483,-0.0496,-0.0497,-0.0498,-0.0515,0,0,-0.0501,-0.0501,0,0,0,0,0,0,0,0,-0.0511,-0.0511,-0.0496,-0.0495,-0.0494,-0.0485,-0.05,-0.0499,-0.0485,-0.0492,-0.0483,-0.0482,-0.0493,-0.0494,-0.0498,-0.0516,-0.0516,-0.0501,-0.0502,-0.0502,-0.0502,0,0,0,0,0,0,0,-0.0511,-0.0511,-0.0502,-0.0496,-0.0494,-0.0489,-0.0489,-0.05,-0.0499,-0.0491,-0.0489,-0.0483,-0.0493,-0.0497,-0.0498,-0.0516,-0.0501,-0.0502,-0.0502,-0.0503,-0.0549,-0.0549,0,0,0,0,0,0,-0.0506,-0.0511,-0.0502,-0.0501,-0.0497,-0.0489,-0.0489,-0.0492,-0.0498,-0.0497,-0.0483,-0.0482,-0.0495,-0.0497,-0.0499,-0.0553,-0.0502,-0.0503,-0.0503,-0.0548,-0.0549,-0.0549,0,0,0,0,0,0,-0.0507,-0.0506,-0.0503,-0.0502,-0.0501,-0.0489,-0.0493,-0.0492,-0.0501,-0.0491,-0.0491,-0.0494,-0.0495,-0.0497,-0.0519,-0.0552,-0.0503,-0.0504,-0.0547,-0.0548,-0.0549,-0.0641,0,0,0,0,0,0,-0.0507,-0.0507,-0.052,-0.0503,-0.0501,-0.0515,-0.0493,-0.0492,-0.0495,-0.0495,-0.0501,-0.0501,-0.0495,-0.0518,-0.052,-0.0553,-0.0505,-0.0547,-0.0548,-0.0549,-0.0637,-0.0645,-0.0652,0,0,0,0,0,-0.0508,-0.0522,-0.0521,-0.052,-0.0516,-0.0515,-0.0516,-0.0507,-0.0497,-0.0512,-0.0512,-0.0501,-0.0526,-0.052,-0.0522,-0.0556,-0.0546,-0.0547,-0.0549,-0.0634,-0.0644,-0.0652,0,0,0,0,0,0,-0.0536,-0.0522,-0.052,-0.0531,-0.053,-0.0513,-0.0522,-0.0515,-0.0527,-0.053,-0.0517,-0.0518,-0.0549,-0.0534,-0.0527,-0.0568,-0.0531,-0.0533,-0.0595,-0.0604,-0.0611,-0.0637,-0.0506,0,0,0,0,0,-0.0548,-0.0556,-0.0543,-0.0555,-0.0553,-0.0541,-0.0543,-0.0541,-0.0539,-0.0544,-0.0549,-0.0549,-0.0556,-0.0565,-0.057,-0.0599,-0.0559,-0.0617,-0.0624,-0.063,-0.065,-0.0593,-0.0597,-0.0554,-0.0554,-0.0554,0,0,-0.0559,-0.0555,-0.0559,-0.0561,-0.0558,-0.0582,-0.0542,-0.0552,-0.0586,-0.0545,-0.0596,-0.0581,-0.0568,-0.0601,-0.0613,-0.0595,-0.0622,-0.0632,-0.0638,-0.0655,-0.0594,-0.0599,-0.0602,-0.0555,-0.0555,-0.0554,0,0,-0.0588,-0.0585,-0.0604,-0.0614,-0.0617,-0.0615,-0.062,-0.0619,-0.0632,-0.0666,-0.0646,-0.0651,-0.0665,-0.0668,-0.0667,-0.0715,-0.0662,-0.0709,-0.0773,-0.0716,-0.072,-0.0722,-0.0682,-0.068,-0.0712,-0.0712,-0.0712,0,-0.0608,-0.0634,-0.0611,-0.0642,-0.0662,-0.0634,-0.0676,-0.0687,-0.07,-0.0717,-0.0694,-0.0706,-0.07,-0.0731,-0.0752,-0.0736,-0.0691,-0.0745,-0.0727,-0.0728,-0.0729,-0.0687,-0.0683,-0.0717,-0.0716,-0.0716,-0.0715,0,-0.0656,-0.0687,-0.0698,-0.0733,-0.0753,-0.0781,-0.0791,-0.0824,-0.0825,-0.0822,-0.0848,-0.0825,-0.083,-0.0824,-0.0811,-0.0823,-0.0786,-0.0742,-0.0708,-0.0739,-0.0692,-0.0687,-0.0723,-0.0722,-0.072,-0.0719,0,0,-0.0675,-0.0725,-0.0733,-0.077,-0.081,-0.0827,-0.0896,-0.0934,-0.096,-0.0965,-0.0991,-0.1001,-0.0965,-0.0961,-0.0931,-0.089,-0.0865,-0.083,-0.0825,-0.0798,-0.0744,-0.0566,-0.0542,-0.0805,-0.0805,-0.0804,-0.0711,0,-0.0725,-0.0796,-0.0818,-0.09,-0.0935,-0.0963,-0.1019,-0.1053,-0.1055,-0.1073,-0.1047,-0.1048,-0.1021,-0.1013,-0.0978,-0.088,-0.0854,-0.0895,-0.0712,-0.0708,-0.055,-0.0531,-0.0803,-0.0707,-0.0705,-0.0705,-0.0704,0,-0.0774,-0.0812,-0.0903,-0.0978,-0.0997,-0.1056,-0.113,-0.1179,-0.1198,-0.119,-0.1187,-0.1144,-0.1124,-0.1072,-0.0951,-0.097,-0.089,-0.0806,-0.0799,-0.06,-0.0518,-0.0666,-0.0694,-0.0694,-0.0695,-0.0696,-0.0696,0,-0.079,-0.0876,-0.0953,-0.0984,-0.1063,-0.1129,-0.118,-0.122,-0.1233,-0.1263,-0.1221,-0.121,-0.1131,-0.1068,-0.0893,-0.0931,-0.0704,-0.0731,-0.0507,-0.0495,-0.0648,-0.0646,-0.066,-0.066,-0.0661,-0.0661,-0.0661,0,-0.0832,-0.0896,-0.0971,-0.1015,-0.1104,-0.1158,-0.1235,-0.1282,-0.129,-0.1242,-0.1272,-0.1172,-0.1109,-0.096,-0.0892,-0.0635,-0.0698,-0.0515,-0.0448,-0.0689,-0.0693,-0.0644,-0.0643,-0.0657,-0.0658,-0.0659,-0.0659,0,-0.085,-0.0901,-0.0988,-0.1082,-0.112,-0.1189,-0.1261,-0.1268,-0.1287,-0.1221,-0.1219,-0.1107,-0.0885,-0.0784,-0.0604,-0.0546,-0.0391,-0.0292,-0.0539,-0.0488,-0.0252,-0.0258,-0.0105,-0.0097,-0.0091,-0.0086,-0.0081,0,-0.0869,-0.0918,-0.103,-0.1068,-0.1124,-0.1212,-0.1239,-0.1283,-0.1237,-0.1123,-0.1038,-0.0842,-0.0737,-0.0358,-0.029,-0.014,-0.0112,-0.01,-0.0229,-0.0239,-0.0191,-0.0206,-0.0219,-0.0072,-0.007,-0.0068,-0.0067,0,-0.0898,-0.0948,-0.1004,-0.1084,-0.1134,-0.117,-0.119,-0.1145,-0.1107,-0.1087,-0.0817,-0.0669,-0.0372,-0.0213,-0.0041,0.0043,-0.0166,-0.0037,-0.0053,-0.0175,-0.0197,-0.0159,-0.0179,-0.0045,-0.0048,-0.005,-0.0052,0,-0.0918,-0.0951,-0.1022,-0.1089,-0.1128,-0.1107,-0.1136,-0.1014,-0.0972,-0.0804,-0.068,-0.0458,-0.0328,-0.0103,0.0042,0.0169,0.0137,0.0061,0.0038,0.0015,0.0026,0.0013,0.03,0,0,0,0,0,-0.0917,-0.0949,-0.1012,-0.1072,-0.1096,-0.1125,-0.1071,-0.1059,-0.0965,-0.0737,-0.0711,-0.0434,-0.0156,-0.005,0.0118,0.0088,0.0105,0.0275,-0.0009,0.0074,0.0049,0.0059,0,0,0,0,0,0,-0.0914,-0.0974,-0.1004,-0.1032,-0.1061,-0.1077,-0.104,-0.0983,-0.084,-0.0722,-0.0546,-0.0446,-0.0164,-0.0238,0.0106,0.0145,-0.0028,0.0409,0.0411,0.0088,0.0066,0.0046,0.0047,0,0,0,0,0]}]]